#timestamp,LO_Frequency,Hit,StdDev 
1598067215.6,286047007.8,P
1598067235.5,286047010.4,P
1598067255.3,286047010.1,P
1598067275.2,286047010.1,Y
1598067295.9,286047002.0,P
1598067315.7,286047002.5,N
1598067335.6,286047001.7,N
1598067355.4,286047002.1,N
1598067375.2,286047002.0,N
1598067395.1,286047002.2,N
1598067396.0,286047002.2,N
1598067415.8,286047002.7,N
1598067435.7,286047002.1,N
1598067455.5,286047002.1,N
1598067475.3,286047000.2,N
1598067495.2,286047002.0,N
1598067515.0,286047004.4,N
1598067515.9,286047004.4,N
1598067535.7,286047002.2,N
1598067555.6,286047002.2,N
1598067575.4,286047001.7,N
1598067595.3,286047003.9,N
1598067615.1,286047003.2,N
1598067616.0,286047003.2,N
1598067635.8,286047004.1,N
1598067655.7,286047003.5,N
1598067675.5,286047002.1,N
1598067695.3,286047003.9,N
1598067715.2,286047001.6,N
1598067735.0,286047001.8,N
1598067735.9,286047001.8,N
1598067755.8,286047003.8,N
1598067775.6,286047003.8,N
1598067795.4,286047004.1,N
1598067815.3,286047003.2,Y
1598067835.1,286047000.0,P
1598067855.9,286047000.2,N
1598067875.7,286047004.4,P
1598067895.5,286047003.8,N
1598067915.4,286047003.6,N
1598067935.2,286047004.2,N
1598067955.0,286047001.9,N
1598067955.9,286047001.9,N
1598067975.8,286047002.8,N
1598067995.6,286047000.0,N
1598068015.5,286047002.4,N
1598068035.3,286047001.7,N
1598068055.1,286047004.1,N
1598068075.9,286047001.3,N
1598068095.7,286047001.8,N
1598068115.5,286047004.4,Y
1598068135.4,286047000.7,P
1598068155.2,286047000.8,N
1598068175.1,286047000.5,N
1598068176.0,286047000.5,N
1598068195.8,286046999.7,N
1598068215.6,286047001.2,N
1598068235.5,286047000.2,N
1598068255.3,286047000.1,N
1598068275.1,286047002.7,Y
1598068295.9,286047000.5,P
1598068315.7,286047000.0,N
1598068335.6,286047000.1,N
1598068355.4,286047002.8,Y
1598068375.2,286047000.5,P
1598068395.1,286047000.1,N
1598068396.0,286047000.1,N
1598068415.8,286047002.3,Y
1598068435.7,286047001.7,P
1598068455.5,286047001.5,N
1598068475.3,286047003.2,P
1598068495.2,286047003.1,N
1598068515.0,286047003.4,Y
1598068515.9,286047003.4,P
1598068535.7,286047004.0,P
1598068555.6,286047004.4,P
1598068575.4,286047002.1,N
1598068595.3,286047002.3,N
1598068615.1,286047002.2,N
1598068616.0,286047002.2,N
1598068635.8,286047001.8,N
1598068655.7,286047004.4,Y
1598068675.5,286046998.2,P
1598068695.4,286046999.5,N
1598068715.2,286046998.6,N
1598068735.0,286046998.7,N
1598068735.9,286046998.7,N
1598068755.8,286046999.3,N
1598068775.6,286046996.6,N
1598068795.4,286046999.6,N
